#timestamp,LO_Frequency,Hit,StdDev 
1555398015.5,286046996.5,N
1555398035.3,286046997.3,N
1555398055.2,286046996.7,N
1555398075.0,286046995.1,N
1555398075.9,286046995.1,N
1555398095.8,286046996.9,N
1555398115.6,286046996.7,N
1555398135.4,286046995.2,N
1555398155.3,286046997.6,N
1555398175.1,286046999.1,N
1555398176.0,286046999.1,N
1555398195.8,286046999.6,N
1555398215.7,286046996.9,N
1555398235.5,286046998.6,N
1555398255.3,286046999.0,N
1555398275.2,286046997.0,N
1555398295.0,286046997.4,N
1555398295.9,286046997.4,N
1555398315.8,286046997.7,N
1555398335.6,286046999.1,N
1555398355.4,286046997.7,N
1555398375.3,286046997.6,N
1555398395.1,286046997.6,N
1555398415.9,286046997.6,N
1555398435.7,286046996.5,N
1555398455.5,286046999.4,N
1555398475.4,286046998.4,N
1555398495.2,286046998.5,N
1555398515.0,286047000.0,N
1555398516.0,286047000.0,N
1555398535.8,286046998.2,N
1555398555.6,286046998.9,N
1555398575.5,286046998.3,N
1555398595.3,286046999.9,N
1555398615.1,286047002.6,N
1555398635.9,286047000.2,N
1555398655.7,286046996.5,N
1555398675.5,286046997.0,N
1555398695.4,286046999.6,N
1555398715.2,286047001.1,N
1555398735.1,286047000.1,N
1555398736.0,286047000.1,N
1555398755.8,286047001.2,N
1555398775.6,286046998.3,N
1555398795.5,286046998.2,N
1555398815.3,286047000.0,N
1555398835.4,286047000.9,N
1555398855.2,286046998.6,N
1555398875.1,286046997.3,N
1555398876.0,286046997.3,N
1555398895.8,286046996.8,N
1555398915.6,286046998.8,N
1555398935.5,286046999.4,N
1555398955.3,286046998.8,N
1555398975.1,286047000.6,N
1555398995.9,286047000.6,N
1555399015.7,286047002.3,N
1555399035.6,286047003.1,N
1555399055.4,286047002.0,N
1555399075.2,286047001.4,N
1555399095.1,286047002.5,N
1555399115.7,286047004.4,N
1555399135.6,286047002.2,N
1555399155.4,286047004.2,N
1555399175.3,286047002.6,N
1555399195.1,286047000.0,N
1555399196.0,286047000.0,N
1555399215.8,286047000.7,N
1555399235.7,286047001.0,N
1555399255.5,286047000.6,N
1555399275.3,286047000.2,N
1555399295.2,286047005.8,Y
1555399315.0,286047003.1,P
1555399315.9,286047003.1,N
1555399335.8,286047001.3,N
1555399355.6,286047001.9,N
1555399375.4,286047002.5,N
1555399395.3,286046999.9,N
1555399415.1,286047000.8,N
1555399435.9,286047001.2,N
1555399455.7,286046998.5,N
1555399475.5,286047001.2,N
1555399495.4,286047001.0,N
1555399515.2,286046998.1,N
1555399535.1,286046998.6,N
1555399536.0,286046998.6,N
1555399555.8,286046998.2,N
1555399575.6,286046997.2,N
1555399595.5,286046998.9,N
1555399615.3,286047000.9,N
1555399635.1,286046999.9,N
1555399655.9,286047000.2,N
1555399675.7,286046999.8,N
1555399695.6,286046999.8,N
1555399715.4,286047002.4,N
1555399735.2,286047000.2,N
1555399755.1,286046999.7,N
1555399756.0,286046999.7,N
1555399775.8,286047002.0,N
1555399795.6,286047002.1,N
1555399815.5,286047002.8,N
1555399835.3,286047002.8,N
1555399855.2,286047000.3,N
1555399875.9,286047002.7,N
1555399895.7,286047002.7,N
1555399915.6,286047000.2,N
1555399935.4,286047000.7,N
1555399955.2,286047000.3,N
1555399975.1,286047001.0,N
1555399976.0,286047001.0,N
1555399995.8,286047000.8,N
1555400015.7,286046998.6,N
1555400035.5,286046996.5,N
1555400055.3,286046999.6,N
1555400075.2,286046997.3,N
1555400095.0,286046996.8,N
1555400095.9,286046996.8,N
1555400115.7,286046998.0,N
1555400135.6,286046995.5,N
1555400155.4,286046997.6,N
1555400175.3,286046997.8,N
1555400195.1,286046997.2,N
1555400196.0,286046997.2,N
1555400215.8,286046996.9,N
1555400235.7,286046996.9,N
1555400255.5,286046997.1,N
1555400275.3,286046997.1,N
1555400295.2,286046996.6,N
1555400315.0,286046995.3,N
1555400315.9,286046995.3,N
1555400335.8,286046995.9,N
1555400355.6,286046995.4,N
1555400375.4,286046995.5,N
1555400395.3,286046996.0,N
1555400415.1,286046996.0,N
1555400435.9,286046996.0,N
1555400455.7,286046996.4,N
1555400475.5,286046994.7,Y
1555400495.4,286046995.7,P
1555400515.2,286046995.0,P
1555400535.0,286046997.7,N
1555400535.9,286046997.7,N
1555400555.8,286046997.7,N
1555400575.6,286046997.6,N
1555400595.5,286046997.4,N
1555400615.3,286046997.3,N
1555400635.1,286046996.7,Y
1555400655.9,286046998.4,P
1555400675.7,286046999.9,N
1555400695.5,286046998.1,N
1555400715.4,286046999.7,N
1555400735.2,286047000.7,N
1555400755.1,286047000.6,N
1555400756.0,286047000.6,N
1555400775.8,286046998.8,N
1555400795.6,286046999.6,N
1555400815.5,286046998.8,N
1555400835.3,286046998.3,N
1555400855.1,286046998.1,N
1555400875.9,286046998.1,N
1555400895.7,286046996.5,Y
1555400915.6,286046998.7,P
1555400935.4,286046996.7,P
1555400955.2,286046996.5,P
1555400975.1,286046996.6,N
1555400976.0,286046996.6,Y
1555400995.8,286047002.6,P
1555401015.7,286047000.5,N
1555401035.5,286047000.1,N
1555401055.3,286046998.8,N
1555401075.2,286046998.7,N
1555401095.0,286046999.6,N
1555401095.9,286046999.6,N
1555401115.7,286046998.9,N
1555401135.6,286046996.6,N
1555401155.4,286046999.4,N
1555401175.3,286046999.2,N
1555401195.1,286046999.2,N
1555401196.0,286046999.2,N
1555401215.8,286046999.2,N
1555401235.7,286046999.0,N
1555401255.5,286046998.7,N
1555401275.3,286046998.9,N
1555401295.2,286046998.2,N
1555401315.0,286046998.2,N
1555401315.9,286046998.2,N
1555401335.8,286046998.3,N
1555401355.6,286046998.4,N
1555401375.5,286046998.5,N
1555401395.3,286046998.1,N
1555401415.1,286046998.6,N
1555401435.9,286046999.4,N
1555401455.7,286046996.5,Y
1555401475.5,286047000.4,P
1555401495.4,286047000.3,N
1555401515.2,286047002.8,P
1555401535.0,286047000.6,N
1555401536.0,286047000.6,N
1555401555.8,286047000.7,N
1555401575.6,286046998.5,N
1555401595.5,286046998.2,N
